1505966400.46,49642,14.25,72912.5,-2.61,-3.55,-3.43,0,*5F
1505966401.7,49643,14.25,72902.5,-2.61,-3.43,-3.43,0,*59
1505966402.94,49644,14.25,72898.3,-2.57,-3.47,-3.47,0,*5B
1505966404.2,49645,14.25,72910.5,-2.63,-3.47,-3.47,0,*5D
1505966405.47,49646,14.25,72912.8,-2.59,-3.43,-3.51,0,*54
1505966406.74,49647,14.25,72910.3,-2.59,-3.51,-3.43,0,*55
1505966407.98,49648,14.25,72938.5,-2.61,-3.43,-3.51,0,*51
1505966409.22,49649,14.25,72900.8,-2.61,-3.43,-3.43,0,*53
1505966410.46,49650,14.25,72926.8,-2.61,-3.43,-3.43,0,*5B
1505966411.71,49651,14.25,72894.5,-2.61,-3.51,-3.43,0,*59
1505966412.95,49652,14.25,72924.5,-2.61,-3.43,-3.43,0,*59
1505966414.19,49653,14.25,72930.8,-2.61,-3.43,-3.43,0,*58
1505966415.46,49654,14.25,72948.8,-2.59,-3.51,-3.43,0,*57
1505966416.7,49655,14.25,72948.8,-2.61,-3.51,-3.51,0,*5E
1505966417.94,49656,14.25,72904.5,-2.61,-3.63,-3.63,0,*5D
1505966419.15,49657,14.25,72864.8,-2.61,-3.75,-3.87,0,*51
1505966420.34,49658,14.25,72878.0,-2.61,-3.87,-3.79,0,*52
1505966421.57,49659,14.25,72868.8,-2.61,-3.67,-3.75,0,*51
1505966422.84,49660,14.25,72892.5,-2.63,-3.59,-3.59,0,*5A
1505966424.08,49661,14.25,72904.0,-2.61,-3.51,-3.55,0,*5D
1505966425.35,49662,14.25,72916.8,-2.63,-3.55,-3.55,0,*58
1505966426.61,49663,14.25,72930.0,-2.63,-3.47,-3.55,0,*5A
1505966427.85,49664,14.25,72940.0,-2.61,-3.43,-3.51,0,*5F
1505966429.12,49665,14.25,72922.8,-2.63,-3.55,-3.55,0,*5F
1505966430.38,49666,14.25,72926.5,-2.63,-3.55,-3.55,0,*5C
1505966431.64,49667,14.25,72920.5,-2.63,-3.55,-3.55,0,*5D
1505966432.91,49668,14.25,72916.0,-2.63,-3.55,-3.55,0,*52
1505966434.17,49669,14.25,72926.3,-2.63,-3.55,-3.47,0,*50
1505966435.44,49670,14.25,72920.0,-2.63,-3.47,-3.55,0,*58
1505966436.68,49671,14.25,72906.3,-2.61,-3.51,-3.43,0,*5B
1505966437.93,49672,14.25,72934.8,-2.61,-3.51,-3.43,0,*58
1505966439.17,49673,14.25,72916.8,-2.61,-3.47,-3.47,0,*5A
1505966440.44,49674,14.25,72918.8,-2.63,-3.55,-3.59,0,*53
1505966441.71,49675,14.25,72900.5,-2.63,-3.47,-3.47,0,*5E
1505966442.97,49676,14.25,72920.5,-2.63,-3.47,-3.47,0,*5D
1505966444.24,49677,14.25,72898.0,-2.63,-3.55,-3.47,0,*5F
1505966445.48,49678,14.31,72902.0,-2.61,-3.51,-3.43,0,*52
1505966446.74,49679,14.25,72922.0,-2.63,-3.55,-3.47,0,*51
1505966447.99,49680,14.25,72908.8,-2.61,-3.51,-3.51,0,*56
1505966449.23,49681,14.25,72922.8,-2.61,-3.43,-3.43,0,*57
1505966450.49,49682,14.25,72908.8,-2.63,-3.55,-3.55,0,*56
1505966451.73,49683,14.25,72892.0,-2.61,-3.43,-3.51,0,*56
1505966452.98,49684,14.25,72898.5,-2.61,-3.43,-3.43,0,*52
1505966454.24,49685,14.25,72910.3,-2.63,-3.55,-3.47,0,*52
1505966455.48,49686,14.25,72918.3,-2.61,-3.43,-3.51,0,*53
1505966456.72,49687,14.25,72902.3,-2.61,-3.51,-3.43,0,*52
1505966457.97,49688,14.25,72930.5,-2.61,-3.43,-3.43,0,*5E
1505966459.21,49689,14.25,72924.3,-2.61,-3.47,-3.43,0,*5B
1505966460.45,49690,14.25,72944.0,-2.61,-3.43,-3.43,0,*57
1505966461.69,49691,14.25,72920.8,-2.61,-3.43,-3.43,0,*56
1505966462.96,49692,14.25,72932.5,-2.59,-3.51,-3.43,0,*5D
1505966464.23,49693,14.25,72924.3,-2.63,-3.47,-3.47,0,*56
1505966465.47,49694,14.25,72944.0,-2.61,-3.43,-3.43,0,*53
1505966466.71,49695,14.25,72962.8,-2.61,-3.43,-3.43,0,*52
1505966467.95,49696,14.25,72946.3,-2.61,-3.43,-3.43,0,*51
1505966469.22,49697,14.25,72962.0,-2.63,-3.47,-3.47,0,*52
1505966470.46,49698,14.25,72964.5,-2.61,-3.51,-3.43,0,*5C
1505966471.71,49699,14.25,72964.0,-2.61,-3.51,-3.51,0,*5E
1505966472.95,49700,14.25,72952.0,-2.61,-3.51,-3.51,0,*5F
1505966474.21,49701,14.25,72946.5,-2.63,-3.55,-3.55,0,*5C
1505966475.45,49702,14.25,72940.8,-2.61,-3.55,-3.51,0,*59
1505966476.69,49703,14.25,72934.8,-2.61,-3.55,-3.51,0,*58
1505966477.96,49704,14.25,72938.5,-2.59,-3.51,-3.43,0,*53
1505966479.23,49705,14.25,72916.8,-2.63,-3.55,-3.55,0,*58
1505966480.47,49706,14.25,72918.5,-2.61,-3.51,-3.51,0,*59
1505966481.71,49707,14.25,72914.8,-2.61,-3.51,-3.51,0,*58
1505966482.95,49708,14.25,72914.0,-2.61,-3.43,-3.43,0,*57
1505966484.22,49709,14.25,72914.8,-2.63,-3.47,-3.47,0,*54
1505966485.49,49710,14.25,72898.0,-2.63,-3.55,-3.55,0,*5C
1505966486.75,49711,14.25,72908.3,-2.63,-3.47,-3.47,0,*5D
1505966488.02,49712,14.25,72908.0,-2.63,-3.55,-3.55,0,*5E
1505966489.26,49713,14.25,72914.0,-2.61,-3.51,-3.51,0,*5D
1505966490.52,49714,14.25,72920.5,-2.63,-3.55,-3.47,0,*5B
1505966491.77,49715,14.25,72924.3,-2.61,-3.51,-3.43,0,*58
1505966493.03,49716,14.25,72920.8,-2.63,-3.55,-3.47,0,*59
1505966494.27,49717,14.25,72928.3,-2.61,-3.43,-3.51,0,*5A
1505966495.54,49718,14.25,72928.3,-2.63,-3.47,-3.47,0,*54
1505966496.81,49719,14.25,72926.5,-2.63,-3.47,-3.47,0,*55
1505966498.08,49720,14.25,72942.5,-2.63,-3.47,-3.55,0,*5C
1505966499.34,49721,14.25,72950.0,-2.63,-3.47,-3.47,0,*5E
1505966500.6,49722,14.25,72946.3,-2.63,-3.55,-3.55,0,*5D
1505966501.87,49723,14.25,72946.3,-2.63,-3.55,-3.55,0,*5C
1505966503.14,49724,14.25,72958.8,-2.63,-3.47,-3.47,0,*5B
1505966504.38,49725,14.25,72956.5,-2.61,-3.43,-3.43,0,*58
1505966505.64,49726,14.25,72962.0,-2.63,-3.43,-3.47,0,*5D
1505966506.91,49727,14.25,72970.3,-2.63,-3.43,-3.47,0,*5C
1505966508.13,49728,14.25,72950.8,-2.61,-3.39,-3.43,0,*58
1505966509.35,49729,14.25,72950.8,-2.61,-3.39,-3.43,0,*59
1505966510.59,49730,14.25,72946.0,-2.61,-3.51,-3.43,0,*5F
1505966511.86,49731,14.25,72940.5,-2.59,-3.43,-3.43,0,*56
1505966513.1,49732,14.25,72942.8,-2.61,-3.51,-3.51,0,*5E
1505966514.37,49733,14.25,72934.8,-2.63,-3.47,-3.51,0,*5A
1505966515.61,49734,14.25,72924.3,-2.61,-3.43,-3.51,0,*5B
1505966516.86,49735,14.25,72914.8,-2.61,-3.51,-3.43,0,*5A
1505966518.1,49736,14.25,72922.0,-2.61,-3.51,-3.43,0,*59
1505966519.34,49737,14.25,72906.0,-2.61,-3.51,-3.51,0,*5B
1505966520.61,49738,14.25,72910.0,-2.63,-3.55,-3.55,0,*56
1505966521.85,49739,14.25,72938.8,-2.61,-3.51,-3.43,0,*56
1505966523.09,49740,14.25,72952.0,-2.61,-3.51,-3.43,0,*58
1505966524.36,49741,14.25,72924.3,-2.63,-3.71,-3.67,0,*5F
1505966525.62,49742,14.25,72908.0,-2.63,-3.71,-3.71,0,*5B
1505966526.86,49743,14.25,72912.8,-2.61,-3.63,-3.55,0,*5D
1505966528.1,49744,14.25,72902.0,-2.61,-3.55,-3.55,0,*5F
1505966529.36,49745,14.25,72894.3,-2.63,-3.55,-3.55,0,*5C
1505966530.6,49746,14.25,72910.5,-2.61,-3.55,-3.51,0,*59
1505966531.84,49747,14.25,72928.0,-2.61,-3.59,-3.55,0,*50
1505966533.11,49748,14.25,72914.5,-2.63,-3.59,-3.55,0,*5D
1505966534.35,49749,14.25,72892.8,-2.61,-3.43,-3.43,0,*52
1505966535.62,49750,14.25,72882.5,-2.63,-3.47,-3.47,0,*58
1505966536.88,49751,14.25,72922.5,-2.63,-3.55,-3.55,0,*59
1505966538.15,49752,14.25,72874.3,-2.63,-3.55,-3.55,0,*5A
1505966539.42,49753,14.25,72894.3,-2.63,-3.59,-3.51,0,*53
1505966540.66,49754,14.25,72894.0,-2.61,-3.55,-3.43,0,*59
1505966541.93,49755,14.25,72904.3,-2.63,-3.55,-3.55,0,*5D
1505966543.19,49756,14.25,72898.3,-2.63,-3.47,-3.55,0,*5D
1505966544.46,49757,14.25,72892.0,-2.63,-3.47,-3.43,0,*5B
1505966545.73,49758,14.25,72902.3,-2.63,-3.47,-3.55,0,*53
1505966546.97,49759,14.25,72918.5,-2.61,-3.47,-3.47,0,*53
1505966548.24,49760,14.25,72944.8,-2.63,-3.47,-3.47,0,*5B
1505966549.48,49761,14.25,72950.0,-2.61,-3.43,-3.43,0,*58
1505966550.74,49762,14.25,72930.3,-2.63,-3.47,-3.47,0,*59
1505966551.99,49763,14.25,72920.8,-2.61,-3.43,-3.43,0,*5A
1505966553.23,49764,14.25,72938.0,-2.61,-3.43,-3.43,0,*5D
1505966554.47,49765,14.25,72930.3,-2.61,-3.51,-3.43,0,*5F
1505966555.71,49766,14.25,72940.0,-2.61,-3.43,-3.43,0,*5F
1505966556.98,49767,14.25,72932.5,-2.63,-3.55,-3.55,0,*5C
1505966558.22,49768,14.25,72932.5,-2.61,-3.51,-3.43,0,*52
1505966559.46,49769,14.25,72938.0,-2.61,-3.43,-3.51,0,*53
1505966560.73,49770,14.25,72946.0,-2.63,-3.47,-3.47,0,*5A
1505966561.97,49771,14.25,72950.8,-2.61,-3.43,-3.51,0,*5A
1505966563.21,49772,14.25,72944.3,-2.61,-3.51,-3.51,0,*5A
1505966564.46,49773,14.25,72918.3,-2.61,-3.51,-3.43,0,*58
1505966565.7,49774,14.25,72930.3,-2.61,-3.43,-3.43,0,*5C
1505966566.94,49775,14.25,72926.3,-2.61,-3.43,-3.43,0,*5D
1505966568.21,49776,14.25,72906.5,-2.59,-3.51,-3.51,0,*55
1505966569.45,49777,14.25,72986.3,-2.61,-3.51,-3.43,0,*5C
1505966570.72,49778,14.25,72890.3,-2.63,-3.55,-3.55,0,*52
1505966571.96,49779,14.25,72872.3,-2.61,-3.63,-3.63,0,*51
1505966573.19,49780,14.25,72980.3,-2.61,-3.55,-3.63,0,*52
1505966574.46,49781,14.25,72948.3,-2.63,-3.55,-3.59,0,*58
1505966575.7,49782,14.25,72964.3,-2.61,-3.55,-3.55,0,*55
1505966576.94,49783,14.25,72970.5,-2.61,-3.51,-3.55,0,*50
1505966578.21,49784,14.25,72966.5,-2.63,-3.55,-3.55,0,*51
1505966579.44,49785,14.25,72958.3,-2.61,-3.55,-3.55,0,*52
1505966580.65,49786,14.25,72910.8,-2.61,-3.75,-3.75,0,*51
1505966581.87,49787,14.25,72864.3,-2.61,-3.67,-3.75,0,*53
1505966583.13,49788,14.25,72924.0,-2.63,-3.71,-3.71,0,*5D
1505966584.38,49789,14.25,72952.3,-2.61,-3.63,-3.63,0,*5E
1505966585.65,49790,14.25,72932.3,-2.63,-3.59,-3.59,0,*54
1505966586.92,49791,14.25,72948.0,-2.63,-3.67,-3.67,0,*55
1505966588.19,49792,14.25,72912.0,-2.63,-3.59,-3.59,0,*56
1505966589.46,49793,14.25,72934.0,-2.63,-3.59,-3.67,0,*5A
1505966590.74,49794,14.25,72950.8,-2.63,-3.59,-3.59,0,*50
1505966592.0,49795,14.25,72948.3,-2.63,-3.55,-3.47,0,*52
1505966593.27,49796,14.25,72946.5,-2.63,-3.47,-3.55,0,*51
1505966594.53,49797,14.25,72942.5,-2.63,-3.55,-3.55,0,*53
1505966595.79,49798,14.25,72950.5,-2.63,-3.55,-3.55,0,*5C
1505966597.06,49799,14.25,72964.3,-2.63,-3.55,-3.47,0,*5E
1505966598.33,49800,14.25,72992.3,-2.63,-3.47,-3.47,0,*52
1505966599.59,49801,14.25,72990.0,-2.63,-3.47,-3.47,0,*53
1505966600.86,49802,14.25,72980.3,-2.63,-3.47,-3.43,0,*54
1505966602.08,49803,14.25,72974.5,-2.61,-3.43,-3.39,0,*5E
1505966603.33,49804,14.25,72962.5,-2.61,-3.47,-3.43,0,*50
1505966604.59,49805,14.25,72940.5,-2.63,-3.55,-3.55,0,*57
1505966605.86,49806,14.25,72902.8,-2.63,-3.55,-3.51,0,*50
1505966607.12,49807,14.25,72900.8,-2.63,-3.55,-3.47,0,*56
1505966608.39,49808,14.25,72940.0,-2.63,-3.47,-3.47,0,*5A
1505966609.63,49809,14.25,72932.0,-2.61,-3.43,-3.43,0,*59
1505966610.89,49810,14.25,72936.8,-2.63,-3.55,-3.55,0,*53
1505966612.16,49811,14.25,72954.8,-2.63,-3.55,-3.55,0,*52
1505966613.43,49812,14.25,72946.0,-2.63,-3.47,-3.47,0,*51
1505966614.69,49813,14.25,72940.0,-2.63,-3.47,-3.47,0,*50
1505966615.96,49814,14.25,72942.3,-2.63,-3.47,-3.55,0,*54
1505966617.23,49815,14.25,72968.0,-2.63,-3.47,-3.47,0,*56
1505966618.47,49816,14.25,72952.8,-2.61,-3.43,-3.43,0,*57
1505966619.74,49817,14.25,72946.8,-2.63,-3.47,-3.47,0,*54
1505966621.0,49818,14.25,72914.5,-2.63,-3.47,-3.47,0,*5B
1505966622.27,49819,14.25,72904.0,-2.63,-3.47,-3.55,0,*59
1505966623.51,49820,14.25,72940.3,-2.61,-3.43,-3.43,0,*52
1505966624.75,49821,14.25,72920.0,-2.61,-3.43,-3.51,0,*50
1505966626.02,49822,14.25,72902.0,-2.63,-3.55,-3.55,0,*52
1505966627.26,49823,14.25,72924.5,-2.61,-3.43,-3.51,0,*52
1505966628.52,49824,14.25,72898.5,-2.63,-3.47,-3.47,0,*54
1505966629.77,49825,14.25,72908.0,-2.61,-3.43,-3.43,0,*57
1505966631.03,49826,14.25,72920.5,-2.63,-3.55,-3.55,0,*56
1505966632.27,49827,14.25,72898.3,-2.61,-3.43,-3.43,0,*55
1505966633.51,49828,14.25,72924.8,-2.61,-3.51,-3.51,0,*5A
1505966634.75,49829,14.25,72972.5,-2.61,-3.55,-3.51,0,*5F
1505966635.99,49830,14.25,72932.0,-2.63,-3.79,-3.79,0,*51
1505966637.19,49831,14.25,72948.3,-2.61,-3.75,-3.75,0,*52
1505966638.47,49832,14.25,72942.8,-2.63,-3.59,-3.59,0,*53
1505966639.73,49833,14.25,72920.5,-2.63,-3.67,-3.67,0,*52
1505966641.0,49834,14.25,72926.5,-2.63,-3.67,-3.67,0,*55
1505966642.27,49835,14.25,72940.8,-2.63,-3.59,-3.59,0,*54
1505966643.55,49836,14.25,72918.3,-2.63,-3.59,-3.59,0,*57
1505966644.79,49837,14.25,72956.0,-2.61,-3.55,-3.51,0,*50
1505966646.03,49838,14.25,72948.5,-2.61,-3.59,-3.51,0,*53
1505966647.3,49839,14.25,72932.5,-2.63,-3.59,-3.55,0,*54
1505966648.57,49840,14.25,72944.5,-2.63,-3.59,-3.55,0,*5A
1505966649.81,49841,14.25,72924.3,-2.61,-3.55,-3.51,0,*51
1505966651.07,49842,14.25,72900.5,-2.63,-3.55,-3.55,0,*54
1505966652.34,49843,14.25,72882.5,-2.63,-3.55,-3.59,0,*59
1505966653.61,49844,14.25,72954.5,-2.63,-3.55,-3.59,0,*5E
1505966654.89,49845,14.25,72920.3,-2.63,-3.59,-3.59,0,*53
1505966656.16,49846,14.25,72920.8,-2.63,-3.59,-3.67,0,*5D
1505966657.43,49847,14.25,72934.5,-2.63,-3.55,-3.59,0,*5D
1505966658.7,49848,14.25,72952.8,-2.63,-3.59,-3.59,0,*5E
1505966659.95,49849,14.25,72960.5,-2.61,-3.51,-3.51,0,*5D
1505966661.19,49850,14.25,72968.0,-2.65,-3.47,-3.55,0,*52
1505966662.45,49851,14.25,72984.5,-2.63,-3.47,-3.47,0,*56
1505966663.72,49852,14.25,72982.5,-2.63,-3.47,-3.47,0,*55
1505966664.99,49853,14.25,72922.5,-2.63,-3.47,-3.47,0,*54
1505966666.25,49854,14.25,72954.5,-2.63,-3.55,-3.47,0,*50
1505966667.52,49855,14.25,72928.3,-2.63,-3.47,-3.55,0,*51
1505966668.76,49856,14.25,72942.0,-2.61,-3.43,-3.43,0,*53
1505966670.03,49857,14.25,72890.5,-2.63,-3.47,-3.47,0,*50
1505966671.27,49858,14.25,73020.3,-2.61,-3.43,-3.43,0,*5D
1505966672.54,49859,14.25,72914.5,-2.63,-3.47,-3.47,0,*5E
1505966673.8,49860,14.25,72948.3,-2.63,-3.47,-3.47,0,*54
1505966675.07,49861,14.25,72978.0,-2.63,-3.47,-3.55,0,*56
1505966676.31,49862,14.25,72918.3,-2.61,-3.43,-3.43,0,*54
1505966677.56,49863,14.25,72914.5,-2.61,-3.51,-3.43,0,*56
1505966678.8,49864,14.25,72990.5,-2.61,-3.43,-3.43,0,*52
1505966680.06,49865,14.25,72946.0,-2.63,-3.55,-3.47,0,*52
1505966681.33,49866,14.25,72944.0,-2.63,-3.51,-3.51,0,*52
1505966682.57,49867,14.25,72986.5,-2.61,-3.43,-3.43,0,*51
1505966683.84,49868,14.25,72930.5,-2.63,-3.47,-3.43,0,*58
1505966685.11,49869,14.25,72958.5,-2.63,-3.47,-3.55,0,*5E
1505966686.38,49870,14.25,72948.5,-2.63,-3.47,-3.47,0,*55
1505966687.64,49871,14.25,72940.0,-2.63,-3.55,-3.47,0,*57
1505966688.88,49872,14.25,72930.8,-2.61,-3.43,-3.43,0,*55
1505966690.15,49873,14.25,72936.5,-2.63,-3.47,-3.47,0,*56
1505966691.42,49874,14.25,72940.3,-2.63,-3.47,-3.47,0,*51
1505966692.66,49875,14.25,72924.8,-2.61,-3.43,-3.43,0,*52
1505966693.9,49876,14.25,72924.8,-2.61,-3.43,-3.43,0,*51
1505966695.14,49877,14.25,72912.0,-2.61,-3.43,-3.43,0,*50
1505966696.41,49878,14.25,72926.3,-2.63,-3.47,-3.47,0,*5D
1505966697.65,49879,14.25,72928.0,-2.61,-3.43,-3.43,0,*5E
1505966698.92,49880,14.25,72928.5,-2.63,-3.47,-3.47,0,*5A
1505966700.16,49881,14.25,72926.0,-2.61,-3.43,-3.43,0,*59
1505966701.43,49882,14.25,72912.8,-2.63,-3.47,-3.47,0,*58
1505966702.67,49883,14.25,72920.5,-2.61,-3.43,-3.43,0,*5B
1505966703.91,49884,14.25,72914.5,-2.61,-3.51,-3.43,0,*5F
1505966705.15,49885,14.25,72896.0,-2.61,-3.43,-3.51,0,*5E
1505966706.42,49886,14.25,72940.8,-2.63,-3.47,-3.47,0,*5C
1505966707.66,49887,14.25,72912.0,-2.61,-3.43,-3.43,0,*5F
1505966708.9,49888,14.25,72910.5,-2.61,-3.43,-3.43,0,*50
1505966710.15,49889,14.25,72888.0,-2.61,-3.43,-3.43,0,*51
1505966711.39,49890,14.25,72862.8,-2.61,-3.43,-3.43,0,*59
1505966712.65,49891,14.25,72860.0,-2.63,-3.47,-3.47,0,*5A
1505966713.89,49892,14.25,72904.3,-2.61,-3.43,-3.51,0,*58
1505966715.16,49893,14.25,72918.0,-2.59,-3.43,-3.43,0,*51
1505966716.43,49894,14.25,72926.0,-2.63,-3.47,-3.47,0,*5F
1505966717.67,49895,14.25,72910.5,-2.61,-3.43,-3.43,0,*5C
1505966718.94,49896,14.25,72916.5,-2.63,-3.47,-3.47,0,*5D
1505966720.21,49897,14.25,72924.3,-2.59,-3.43,-3.43,0,*55
1505966721.47,49898,14.25,72924.8,-2.63,-3.47,-3.47,0,*53
1505966722.74,49899,14.25,72920.3,-2.63,-3.47,-3.47,0,*52
1505966723.98,49900,14.25,72916.8,-2.61,-3.43,-3.43,0,*51
1505966725.25,49901,14.25,72918.3,-2.63,-3.47,-3.47,0,*52
1505966726.49,49902,14.25,72928.5,-2.61,-3.51,-3.43,0,*50
1505966727.71,49903,14.25,72932.3,-2.61,-3.43,-3.39,0,*5F
1505966728.93,49904,14.25,72934.8,-2.61,-3.39,-3.43,0,*58
1505966730.15,49905,14.25,72946.8,-2.61,-3.39,-3.43,0,*59
1505966731.39,49906,14.25,72954.5,-2.61,-3.43,-3.43,0,*57
1505966732.63,49907,14.25,72958.5,-2.61,-3.43,-3.43,0,*56
1505966733.9,49908,14.25,72936.0,-2.63,-3.55,-3.47,0,*58
1505966735.17,49909,14.25,72956.8,-2.59,-3.43,-3.43,0,*53
1505966736.41,49910,14.25,72960.5,-2.61,-3.43,-3.51,0,*53
1505966737.67,49911,14.25,72954.3,-2.59,-3.43,-3.43,0,*5A
1505966738.92,49912,14.25,72944.0,-2.61,-3.51,-3.43,0,*51
1505966740.16,49913,14.25,72982.0,-2.61,-3.43,-3.43,0,*53
1505966741.4,49914,14.25,72954.8,-2.61,-3.43,-3.43,0,*54
1505966742.67,49915,14.25,72962.0,-2.59,-3.43,-3.43,0,*5E
1505966743.91,49916,14.25,72966.0,-2.61,-3.43,-3.43,0,*56
1505966745.15,49917,14.25,72964.5,-2.61,-3.43,-3.43,0,*57
1505966746.39,49918,14.25,72948.5,-2.61,-3.43,-3.43,0,*58
1505966747.63,49919,14.25,72956.3,-2.61,-3.43,-3.43,0,*59
1505966748.87,49920,14.25,72958.0,-2.61,-3.43,-3.43,0,*53
1505966750.12,49921,14.25,72950.8,-2.61,-3.43,-3.51,0,*51
1505966751.38,49922,14.25,72978.5,-2.59,-3.43,-3.43,0,*5A
1505966752.65,49923,14.25,72960.0,-2.59,-3.43,-3.43,0,*5B
1505966753.92,49924,14.25,72930.0,-2.59,-3.43,-3.43,0,*5C
1505966755.19,49925,14.25,72966.3,-2.59,-3.43,-3.43,0,*5D
1505966756.45,49926,14.25,72944.8,-2.59,-3.43,-3.43,0,*5E
1505966757.7,49927,14.25,72928.0,-2.61,-3.51,-3.43,0,*57
1505966758.94,49928,14.25,72936.3,-2.61,-3.43,-3.43,0,*5B
1505966760.18,49929,14.25,72926.0,-2.61,-3.43,-3.43,0,*5A
1505966761.42,49930,14.25,72942.3,-2.61,-3.43,-3.43,0,*52
1505966762.66,49931,14.25,72950.5,-2.61,-3.43,-3.43,0,*53
1505966763.9,49932,14.25,72942.8,-2.61,-3.43,-3.43,0,*50
1505966765.15,49933,14.25,72950.3,-2.61,-3.43,-3.43,0,*51
1505966766.39,49934,14.25,72962.3,-2.61,-3.43,-3.43,0,*56
1505966767.63,49935,14.25,72950.0,-2.61,-3.43,-3.43,0,*57
1505966768.87,49936,14.25,72946.5,-2.61,-3.43,-3.43,0,*54
1505966770.11,49937,14.25,72948.3,-2.61,-3.51,-3.43,0,*56
1505966771.36,49938,14.25,72944.0,-2.61,-3.43,-3.43,0,*5A
1505966772.6,49939,14.25,72942.5,-2.61,-3.43,-3.43,0,*5B
1505966773.84,49940,14.25,72936.0,-2.61,-3.43,-3.43,0,*55
1505966775.08,49941,14.25,72944.0,-2.61,-3.51,-3.43,0,*57
1505966776.35,49942,14.25,72912.8,-2.63,-3.47,-3.51,0,*52
1505966777.59,49943,14.25,72916.3,-2.61,-3.43,-3.43,0,*56
1505966778.83,49944,14.25,72914.8,-2.61,-3.43,-3.51,0,*52
1505966780.08,49945,14.25,72922.0,-2.61,-3.51,-3.51,0,*50
1505966781.34,49946,14.25,72946.8,-2.59,-3.43,-3.43,0,*58
1505966782.58,49947,14.25,72946.5,-2.61,-3.43,-3.51,0,*51
1505966783.85,49948,14.25,72956.3,-2.63,-3.55,-3.47,0,*5C
1505966785.09,49949,14.25,72958.8,-2.61,-3.43,-3.43,0,*5C
1505966786.33,49950,14.25,72972.3,-2.61,-3.43,-3.43,0,*54
1505966787.57,49951,14.25,72958.5,-2.61,-3.43,-3.43,0,*55
1505966788.81,49952,14.25,72934.0,-2.61,-3.43,-3.51,0,*55
1505966790.05,49953,14.25,72948.8,-2.61,-3.51,-3.55,0,*53
1505966791.29,49954,14.25,72932.0,-2.61,-3.51,-3.55,0,*54
1505966792.54,49955,14.25,72924.0,-2.61,-3.63,-3.63,0,*51
1505966793.74,49956,14.25,72910.0,-2.61,-3.75,-3.79,0,*5E
1505966794.96,49957,14.25,72912.0,-2.61,-3.67,-3.75,0,*50
1505966796.2,49958,14.25,72910.8,-2.63,-3.79,-3.79,0,*5E
1505966797.44,49959,14.25,72898.8,-2.63,-3.79,-3.71,0,*57
1505966798.65,49960,14.25,72856.0,-2.61,-3.75,-3.75,0,*57
1505966799.9,49961,14.25,72838.8,-2.63,-3.79,-3.71,0,*5C
1505966801.16,49962,14.25,72936.5,-2.63,-3.67,-3.71,0,*50
1505966802.44,49963,14.25,72924.5,-2.63,-3.67,-3.59,0,*5B
1505966803.71,49964,14.25,72940.0,-2.63,-3.55,-3.59,0,*5D
1505966804.95,49965,14.25,72898.5,-2.61,-3.55,-3.51,0,*56
1505966806.21,49966,14.25,72910.8,-2.63,-3.59,-3.55,0,*5F
1505966807.45,49967,14.25,72902.0,-2.65,-3.55,-3.55,0,*54
1505966808.69,49968,14.25,72918.0,-2.61,-3.55,-3.43,0,*58
1505966809.95,49969,14.25,72916.0,-2.63,-3.55,-3.55,0,*5C
1505966811.22,49970,14.25,72926.8,-2.63,-3.47,-3.47,0,*54
1505966812.47,49971,14.25,72940.3,-2.61,-3.51,-3.51,0,*57
1505966813.73,49972,14.25,72914.8,-2.63,-3.47,-3.47,0,*56
1505966815.0,49973,14.25,72908.3,-2.59,-3.51,-3.43,0,*5D
1505966816.27,49974,14.25,72904.8,-2.63,-3.55,-3.47,0,*53
1505966817.53,49975,14.25,72934.5,-2.63,-3.47,-3.55,0,*52
1505966818.78,49976,14.25,72956.0,-2.61,-3.51,-3.43,0,*53
1505966820.02,49977,14.25,72928.3,-2.61,-3.51,-3.51,0,*51
1505966821.26,49978,14.25,72908.8,-2.61,-3.55,-3.55,0,*5E
1505966822.52,49979,14.25,72924.0,-2.63,-3.55,-3.55,0,*5D
1505966823.78,49980,14.25,72924.3,-2.63,-3.55,-3.55,0,*5B
1505966825.05,49981,14.25,72960.0,-2.63,-3.55,-3.55,0,*5A
1505966826.32,49982,14.25,73002.5,-2.63,-3.55,-3.59,0,*55
1505966827.59,49983,14.25,72978.0,-2.63,-3.47,-3.47,0,*58
1505966828.85,49984,14.25,72974.3,-2.63,-3.47,-3.55,0,*5C
1505966830.12,49985,14.25,72974.8,-2.63,-3.55,-3.47,0,*5D
1505966831.38,49986,14.25,72952.0,-2.63,-3.55,-3.47,0,*5E
1505966832.63,49987,14.25,72906.5,-2.61,-3.51,-3.43,0,*5D
1505966833.86,49988,14.25,72904.5,-2.61,-3.55,-3.47,0,*52
1505966835.13,49989,14.25,72920.5,-2.63,-3.55,-3.47,0,*51
1505966836.37,49990,14.25,72944.3,-2.61,-3.51,-3.51,0,*58
1505966837.61,49991,14.25,72920.8,-2.61,-3.51,-3.43,0,*5A
1505966838.86,49992,14.25,72926.0,-2.61,-3.51,-3.43,0,*59
1505966840.1,49993,14.25,72944.0,-2.61,-3.47,-3.43,0,*5F
1505966841.34,49994,14.25,72954.5,-2.61,-3.51,-3.51,0,*5C
1505966842.61,49995,14.25,72910.0,-2.63,-3.55,-3.47,0,*5C
1505966843.88,49996,14.25,72948.5,-2.63,-3.47,-3.55,0,*5F
1505966845.14,49997,14.25,72934.5,-2.63,-3.47,-3.55,0,*5E
1505966846.38,49998,14.25,72896.0,-2.61,-3.43,-3.51,0,*53
1505966847.65,49999,14.25,72902.8,-2.63,-3.55,-3.55,0,*53
1505966848.91,50000,14.25,72928.8,-2.63,-3.47,-3.47,0,*52
1505966850.18,50001,14.25,72902.5,-2.63,-3.47,-3.43,0,*57
1505966851.45,50002,14.25,72914.3,-2.63,-3.47,-3.47,0,*50
1505966852.72,50003,14.25,72922.8,-2.63,-3.47,-3.43,0,*55
1505966853.99,50004,14.25,72930.8,-2.63,-3.47,-3.47,0,*56
1505966855.26,50005,14.25,72934.5,-2.63,-3.47,-3.47,0,*57
1505966856.5,50006,14.25,72966.0,-2.61,-3.43,-3.43,0,*56
1505966857.74,50007,14.25,72960.3,-2.61,-3.43,-3.43,0,*57
1505966858.98,50008,14.25,72962.8,-2.61,-3.43,-3.43,0,*58
1505966860.22,50009,14.25,72954.3,-2.61,-3.43,-3.43,0,*59
1505966861.49,50010,14.25,72932.5,-2.63,-3.47,-3.47,0,*53
1505966862.73,50011,14.25,72930.8,-2.61,-3.43,-3.43,0,*50
1505966863.97,50012,14.25,72930.0,-2.61,-3.43,-3.43,0,*53
1505966865.24,50013,14.25,72938.0,-2.63,-3.47,-3.47,0,*50
1505966866.48,50014,14.25,72938.5,-2.61,-3.43,-3.43,0,*55
1505966867.72,50015,14.25,72940.3,-2.61,-3.43,-3.43,0,*54
1505966868.99,50016,14.25,72932.8,-2.63,-3.47,-3.47,0,*55
1505966870.23,50017,14.25,72940.0,-2.61,-3.43,-3.43,0,*56
1505966871.47,50018,14.25,72930.8,-2.61,-3.43,-3.43,0,*59
1505966872.74,50019,14.25,72948.5,-2.63,-3.43,-3.43,0,*5A
1505966874.01,50020,14.25,72944.3,-2.63,-3.43,-3.43,0,*50
1505966875.23,50021,14.25,72932.3,-2.61,-3.39,-3.43,0,*5E
1505966876.45,50022,14.25,72922.0,-2.61,-3.39,-3.43,0,*5D
1505966877.67,50023,14.25,72918.0,-2.61,-3.39,-3.43,0,*5C
1505966878.91,50024,14.25,72928.0,-2.61,-3.51,-3.43,0,*55
1505966880.15,50025,14.25,72906.8,-2.61,-3.43,-3.43,0,*57
1505966881.4,50026,14.25,72914.8,-2.61,-3.43,-3.43,0,*54
1505966882.64,50027,14.25,72912.5,-2.61,-3.51,-3.51,0,*55
1505966883.88,50028,14.25,72922.5,-2.61,-3.43,-3.43,0,*5A
1505966885.12,50029,14.25,72918.8,-2.61,-3.43,-3.43,0,*5B
1505966886.39,50030,14.25,72926.0,-2.59,-3.43,-3.43,0,*58
1505966887.63,50031,14.25,72916.3,-2.61,-3.43,-3.43,0,*52
1505966888.89,50032,14.25,72922.5,-2.63,-3.55,-3.47,0,*50
1505966890.13,50033,14.25,72930.3,-2.61,-3.43,-3.43,0,*50
1505966891.38,50034,14.25,72942.3,-2.61,-3.43,-3.43,0,*57
1505966892.62,50035,14.25,72942.0,-2.61,-3.43,-3.43,0,*56
1505966893.89,50036,14.25,72936.8,-2.59,-3.43,-3.43,0,*5E
1505966895.13,50037,14.25,72948.3,-2.61,-3.43,-3.43,0,*54
1505966896.37,50038,14.25,72940.8,-2.61,-3.43,-3.43,0,*5B
1505966897.64,50039,14.25,72956.0,-2.59,-3.43,-3.43,0,*51
1505966898.88,50040,14.25,72942.0,-2.61,-3.43,-3.43,0,*54
1505966900.12,50041,14.25,72922.0,-2.61,-3.43,-3.43,0,*55
1505966901.36,50042,14.25,72930.0,-2.61,-3.43,-3.43,0,*56
1505966902.63,50043,14.25,72942.0,-2.63,-3.47,-3.47,0,*55
1505966903.87,50044,14.25,72942.0,-2.61,-3.43,-3.43,0,*50
1505966905.09,50045,14.25,72934.5,-2.61,-3.39,-3.43,0,*5C
1505966906.31,50046,14.25,72934.0,-2.61,-3.39,-3.43,0,*5F
1505966907.5,50047,14.25,72936.5,-2.61,-3.39,-3.39,0,*53
1505966908.7,50048,14.25,72944.5,-2.61,-3.39,-3.39,0,*5C
1505966909.9,50049,14.25,72938.8,-2.61,-3.39,-3.35,0,*51
1505966911.1,50050,14.25,72940.3,-2.61,-3.39,-3.35,0,*59
1505966912.3,50051,14.25,72952.0,-2.61,-3.39,-3.39,0,*54
1505966913.54,50052,14.25,72942.0,-2.61,-3.43,-3.43,0,*57
1505966914.81,50053,14.25,72958.0,-2.59,-3.43,-3.43,0,*5D
1505966916.05,50054,14.25,72950.8,-2.61,-3.43,-3.43,0,*51
1505966917.29,50055,14.25,72960.0,-2.61,-3.43,-3.43,0,*50